Location: ?????
(31.8092°N, 35.2590°E)
Time: 19:21:23
(UTC+00:00)

Cosmos 1455 Rocket - Pass Details

Date: 19 October 2021
Orbit: 604 x 630 km, 82.5° (Epoch: 04 December)

Event Time Altitude Azimuth Distance (km) Brightness Sun altitude
Rises 03:13:02 0° 355° (N) 2,922 6.4 -7.6°
Reaches altitude 10° 03:15:17 10° 357° (N) 2,009 5.6 -7.1°
Maximum altitude 03:19:44 79° 83° (E) 642 3.3 -6.2°
Drops below altitude 10° 03:24:09 10° 171° (S) 1,985 5.9 -5.2°
Sets 03:26:21 0° 172° (S) 2,883 6.7 -4.8°
